Location: Anoye
(43.4000°N, 0.1333°W)
Time: 00:17:02
(UTC+00:00)

Daily predictions for brighter satellites

Satellite Brightness Start Highest point End
(mag) Time Altitude Azimuth Time Altitude Azimuth Time Altitude Azimuth
Cosmos 2082 Rocket 4.1 00:08:28 10° WNW 00:11:31 15° W 00:11:38 15° W
Cosmos 2221 2.9 00:08:47 10° N 00:12:32 58° NE 00:12:32 58° NE
Cosmos 1447 Rocket 4.5 00:08:51 10° NNW 00:15:02 67° W 00:16:03 58° SW
Cosmos 2369 Rocket 2.5 00:15:02 50° WSW 00:16:09 60° WNW 00:21:44 10° NNE
Cosmos 1153 Rocket 4.5 00:16:19 59° SW 00:17:31 75° W 00:23:50 10° N
Cosmos 2173 Rocket 3.9 00:18:04 58° SE 00:19:03 69° E 00:25:07 10° NNE
BREEZE-M DEB (TANK) 4.5 00:19:11 60° SW 00:20:16 80° SE 00:34:12 10° ENE
CENTAUR R/B 3.6 00:14:18 10° NNW 00:22:32 63° NE 00:30:38 14° SE
SL-8 R/B 4.2 00:21:55 34° W 00:23:46 59° NNW 00:28:32 10° ENE
Cosmos 44 Rocket 3.8 00:26:14 50° E 00:26:14 50° E 00:30:42 10° NE
Cosmos 2151 3.4 00:28:00 59° NE 00:28:00 59° NE 00:31:37 10° NNE
BREEZE-M DEB (TANK) 3.7 00:28:18 50° E 00:28:18 50° E 00:33:58 10° ENE
Cosmos 1624 Rocket 4.4 00:28:37 50° W 00:29:19 54° WNW 00:34:29 10° NNE
Cosmos 1954 Rocket 4.1 00:24:50 10° NNW 00:29:47 61° W 00:29:47 61° W
Iridium 4 Rocket 3.8 00:29:27 10° N 00:35:14 66° W 00:36:02 59° SW
H-2A R/B 2.4 00:32:41 10° N 00:36:11 55° NW 00:36:11 55° NW
Cosmos 1076 Rocket 3.9 00:38:29 55° ENE 00:38:29 55° ENE 00:42:23 10° NNE
Meteor 2-21 Rocket 4.3 00:33:50 10° N 00:40:00 87° W 00:41:13 61° S
Cosmos 1825 Rocket 4.1 00:40:45 50° WNW 00:40:45 50° WNW 00:44:37 10° N
Cosmos 1340 Rocket 3.4 00:38:42 10° N 00:41:54 54° NNE 00:41:54 54° NNE
Cosmos 1452 Rocket 3.6 00:43:06 60° ESE 00:43:22 61° ESE 00:48:33 10° NNE
Cosmos 2056 Rocket 4.4 00:42:45 36° W 00:43:51 40° WNW 00:48:47 10° N
USA 59 Rocket 1.3 00:50:39 24° NE 00:50:39 24° NE 00:51:59 10° NE
Lacrosse 4 Rocket 2.7 00:50:57 30° WNW 00:51:13 31° NW 00:54:54 10° N
Meteor 2-8 Rocket 4.3 00:53:23 60° SSW 00:54:35 84° W 01:00:41 10° N
Cosmos 1953 Rocket 3.8 00:56:15 60° WNW 00:56:15 60° WNW 01:00:30 10° N
Lacrosse 5 rocket 3.0 00:58:00 23° WNW 00:59:05 27° NNW 01:02:31 10° NNE
USA 281 3.6 00:58:23 41° WSW 00:59:06 42° WSW 01:05:19 10° NW
Meteor 1-20 Rocket 4.5 00:58:41 49° SE 00:59:48 58° E 01:05:17 10° NNE
NOSS 3-2 (A) 4.3 00:55:12 10° NNW 01:02:40 71° NE 01:11:28 10° SE
Meteor 2-16 Rocket 4.4 00:58:14 10° NNW 01:04:18 66° W 01:05:29 54° SW
Cosmos 1331 Rocket 3.8 01:04:18 73° S 01:04:49 87° ESE 01:10:01 10° NNE
DELTA 2 R/B (1) 4.1 01:07:00 41° SE 01:07:00 41° SE 01:11:10 10° E
CZ-2C R/B 4.1 01:05:56 17° ESE 01:09:36 35° ENE 01:14:38 10° N
NOSS 2-1 (E) 4.2 01:13:34 36° N 01:13:34 36° N 01:15:33 10° NNE
COBE Rocket 3.8 01:07:50 10° NNE 01:12:45 75° E 01:13:15 67° SSE
SJ 16-02 2.1 01:09:56 10° N 01:14:11 47° ENE 01:15:14 39° ESE
CZ-4C R/B 4.2 01:10:11 10° WNW 01:16:17 25° WSW 01:16:37 25° WSW
MOZ.5/SAFIR/RUBIN 5/SL-8 4.2 01:16:44 45° ESE 01:17:50 57° ENE 01:22:23 10° N
SL-08 R/B 4.4 01:17:34 52° SSW 01:19:10 79° W 01:25:25 10° N
CZ-2D R/B 3.4 01:17:09 10° NE 01:21:42 30° E 01:23:29 24° SE
Cosmos 2016 Rocket 4.1 01:21:04 47° SW 01:22:48 64° W 01:29:07 10° N
Cosmos 1741 Rocket 3.9 01:18:07 10° NNW 01:23:23 71° WSW 01:24:04 62° SSW
Cosmos 2233 Rocket 3.9 01:22:17 49° S 01:24:11 89° E 01:30:28 10° N
NOSS 2-1 (D) 4.2 01:27:03 34° NNW 01:27:03 34° NNW 01:29:22 10° NNE
Meteor 1-10 Rocket 4.4 01:23:39 10° NNW 01:29:28 59° W 01:30:44 49° SW
ASTEX 1 3.4 01:30:27 58° WSW 01:30:57 61° W 01:35:52 10° NNW
Cosmos 1725 Rocket 4.4 01:32:37 40° SW 01:34:27 52° WNW 01:40:36 10° N
Cosmos 1151 Rocket 3.8 01:31:22 10° N 01:35:35 47° ENE 01:36:54 35° SE
Meteor 1-27 Rocket 3.7 01:30:04 10° NNW 01:35:55 81° W 01:37:38 47° S
Lacrosse 5 2.4 01:31:42 10° NW 01:36:44 59° NE 01:41:44 10° ESE
COSMOS 2455 3.6 01:33:23 10° NW 01:38:45 34° WSW 01:38:45 34° WSW
USA 234 3.2 01:32:34 10° NE 01:39:08 73° SE 01:41:40 40° SSW
NPP 3.9 01:34:45 10° NNE 01:40:07 63° ESE 01:41:51 41° SSE
Meteor 1-25 Rocket 4.2 01:40:41 48° SSW 01:42:21 77° W 01:48:13 10° N
Helios 1A Rocket 3.0 01:44:43 55° WNW 01:44:43 55° WNW 01:48:09 10° NNW
Meteor 1-19 Rocket 4.3 01:39:39 10° NNW 01:45:29 66° W 01:47:17 44° SSW
H-2A R/B 3.9 01:43:09 10° NNE 01:47:06 49° E 01:47:47 44° SE
SL-16 R/B 4.1 01:41:58 10° SE 01:47:22 33° ENE 01:52:47 10° N
Cosmos 1302 Rocket 3.9 01:48:24 51° SSW 01:49:45 83° WNW 01:55:01 10° NNE
ADEOS II 3.2 01:45:19 10° NNE 01:50:09 36° E 01:52:42 23° SSE
ATLAS CENTAUR R/B 3.1 01:49:08 44° SSW 01:51:08 71° SE 02:00:04 10° NE
Resurs 1-4 Rocket 2.4 01:47:04 10° NNE 01:52:21 60° E 01:54:25 36° SSE
Cosmos 968 Rocket 3.7 01:47:34 10° NNW 01:52:38 51° WSW 01:53:23 47° SW
IDEFIX/ARIANE 42P 2.5 01:50:01 10° NNE 01:55:14 89° ESE 01:56:53 45° SSW
Cosmos 1464 Rocket 4.4 01:58:47 24° SSE 02:02:22 56° E 02:08:20 10° NNE
Cosmos 2227 Rocket 3.6 02:01:53 10° N 02:07:08 38° ENE 02:12:21 10° SE
Cosmos 1743 2.9 02:07:23 47° SE 02:08:05 57° E 02:11:41 10° NNE
Cosmos 1697 Rocket 3.5 02:06:26 25° SSE 02:09:09 43° ESE 02:14:27 10° NE
Meteor 1-5 Rocket 4.0 02:09:48 38° SSW 02:11:57 80° W 02:17:19 10° N
CENTAUR R/B 3.7 02:05:21 10° NW 02:13:13 41° WSW 02:17:38 26° SSW
Cosmos 1992 Rocket 3.9 02:20:06 36° SSW 02:22:16 85° WNW 02:27:30 10° NNE
Cosmos 967 Rocket 4.4 02:16:03 10° NW 02:22:21 64° WSW 02:27:58 13° SSE
Cosmos 2297 Rocket 2.1 02:17:05 10° NNW 02:22:46 89° WSW 02:28:26 10° SSE
Meteor 2-17 Rocket 4.4 02:18:43 10° N 02:24:54 86° E 02:29:42 17° S
CZ-2C R/B 2.9 02:22:58 10° N 02:27:42 68° WNW 02:29:40 34° SW
Cosmos 2344 3.7 02:23:34 24° WSW 02:28:18 60° NW 02:35:36 10° NNE
Meteor 2-4 Rocket 3.7 02:23:04 10° NNW 02:28:24 63° W 02:31:16 28° SSW
COSMOS 2441 4.4 02:28:12 10° N 02:33:06 73° WNW 02:35:26 31° SSW
Lacrosse 5 rocket 4.1 02:36:47 10° NNW 02:38:33 12° N 02:40:20 10° NNE
Cosmos 1707 4.2 02:35:35 10° N 02:38:54 32° ENE 02:42:12 10° SE
Cosmos 1656 4.3 02:39:14 24° WSW 02:42:03 42° WNW 02:47:18 10° NNE
Cosmos 1980 Rocket 3.3 02:38:29 14° SSE 02:42:56 38° ESE 02:48:09 10° NE
Cosmos 1626 2.9 02:40:18 10° NNW 02:42:44 27° W 02:42:44 27° W
USA 238 DEB 4.1 02:35:54 10° NW 02:43:21 79° NE 02:51:21 10° SE
USA 238 4.1 02:36:00 10° NW 02:43:26 79° NE 02:51:23 10° SE
Cosmos 1515 Rocket 4.5 02:40:24 10° N 02:44:42 48° ENE 02:48:57 10° SSE
Cosmos 1766 Rocket 3.6 02:44:24 30° SSW 02:46:30 67° W 02:50:53 10° N
Cosmos 482 Debris 2.8 02:43:59 10° WNW 02:46:55 79° SSW 02:49:08 10° SE
USA 32 4.1 02:42:58 10° NNW 02:48:06 59° W 02:51:20 22° SSW
CZ-2C R/B 3.4 02:47:25 25° SW 02:49:47 35° W 02:54:54 10° NNW
Cosmos 1674 2.3 02:48:19 10° N 02:51:42 87° E 02:53:48 22° S
DELTA 2 R/B (1) 3.6 02:47:43 17° WSW 02:51:54 59° S 02:57:21 10° ESE
Cosmos 1400 Rocket 3.9 02:48:10 10° N 02:51:56 43° ENE 02:55:41 10° SSE
SJ 16-02 3.1 02:49:24 10° WNW 02:51:56 16° W 02:51:56 16° W
Cosmos 1726 1.7 02:51:38 42° SW 02:52:18 55° W 02:55:16 10° N
Meteor 1-28 Rocket 3.0 02:54:26 24° S 02:56:26 64° W 03:00:01 10° NNW
ATLAS 5 CENTAUR R/B 2.9 02:51:43 10° NNW 02:56:33 54° NE 03:02:29 10° SE
CZ-2D R/B 2.9 02:57:00 10° N 03:01:43 36° WNW 03:04:46 19° WSW
Tiangong -2.2 03:00:36 30° WSW 03:01:53 60° S 03:04:57 10° ESE
ALOS 2.2 02:58:48 10° N 03:03:25 76° WNW 03:06:41 19° SSW
Cosmos 1328 Rocket 4.0 03:01:55 10° NNW 03:06:07 44° W 03:08:52 20° SSW
AQUA 4.1 03:03:47 10° N 03:08:23 53° WNW 03:11:33 19° SW
Cosmos 1536 2.8 03:05:39 17° S 03:08:41 84° E 03:12:40 10° N
Cosmos 371 Rocket 3.3 03:06:04 10° NNW 03:10:52 61° WSW 03:15:37 10° S
SAR-Lupe-1 4.3 03:08:37 10° NNE 03:12:11 66° ESE 03:15:12 14° S
Cosmos 1500 Rocket 4.1 03:12:44 10° S 03:16:59 58° E 03:21:18 10° NNE
Cosmos 2219 3.5 03:13:05 10° NNW 03:18:47 72° ENE 03:24:28 10° SSE
Lacrosse 5 2.7 03:15:11 10° WNW 03:19:24 27° SW 03:23:37 10° S
NOSS 3-4 (C) 3.4 03:15:59 17° SW 03:20:13 64° NW 03:26:11 10° NNE
FENGYUN 3A 4.5 03:15:35 10° N 03:20:30 36° WNW 03:24:25 15° SW
NOSS 3-4 (A) 3.4 03:16:27 17° SW 03:20:38 62° NW 03:26:32 10° NNE
Cosmos 1733 3.1 03:17:59 12° S 03:21:08 76° E 03:24:40 10° NNE
USA 234 4.1 03:15:47 10° NE 03:21:54 43° NNW 03:28:00 10° W
Cosmos 1340 2.9 03:21:55 20° SW 03:23:52 40° WNW 03:27:03 10° N
Cosmos 1867 4.0 03:20:28 10° NW 03:25:31 39° WSW 03:30:31 10° S
Cosmos 2369 4.0 03:21:44 10° SSW 03:27:21 66° ESE 03:33:02 10° NNE
Nadezhda 4 Rocket 4.5 03:22:22 10° NNW 03:28:00 39° W 03:33:35 10° SSW
KORONAS-FOTON 4.1 03:25:22 10° NNW 03:28:47 41° W 03:31:53 12° SSW
Cosmos 2034 Rocket 4.4 03:23:56 14° SSW 03:29:14 48° WNW 03:35:23 10° N
ADEOS II 3.1 03:25:07 10° N 03:29:39 31° WNW 03:33:35 13° WSW
RESURS DK-1 3.8 03:26:11 10° S 03:29:47 32° ESE 03:33:25 10° NE
Meteor 1-4 Rocket 3.9 03:27:09 10° N 03:29:47 32° ENE 03:32:23 10° SE
Meteor 2-10 4.0 03:25:18 10° S 03:30:24 83° E 03:35:28 10° NNE
SL-16 R/B 2.9 03:24:57 10° S 03:30:46 43° W 03:36:38 10° NNW
CZ-4 R/B 4.1 03:26:19 10° NNE 03:31:17 73° ESE 03:36:08 10° S
Resurs 1-4 Rocket 3.7 03:27:53 10° NNW 03:31:40 20° WNW 03:35:26 10° WSW
SAR-Lupe-4 3.7 03:29:25 10° N 03:32:55 57° WNW 03:36:00 13° SSW
Cosmos 1503 Rocket 4.0 03:33:30 10° NNW 03:38:35 62° WSW 03:43:41 10° S
UNK 4.1 03:36:00 10° S 03:40:19 44° W 03:44:41 10° NNW
H-2A R/B 3.6 03:36:35 10° NNE 03:40:58 32° E 03:45:19 10° SSE
Cosmos 2263 Rocket 2.3 03:36:45 10° NNW 03:42:24 83° ENE 03:48:03 10° SSE
Cosmos 1805 Rocket 3.6 03:38:08 10° S 03:42:34 88° W 03:47:02 10° N
Cosmos 1805 3.4 03:40:55 10° S 03:44:32 67° E 03:48:12 10° NNE
Meteor 2-9 Rocket 4.3 03:40:19 10° SSW 03:46:08 80° WNW 03:51:49 10° N
Cosmos 1356 Rocket 3.2 03:43:45 10° NNW 03:47:40 84° W 03:51:35 10° S
SL-8 R/B 3.8 03:44:41 10° WNW 03:49:31 84° NNE 03:54:20 10° ESE
Cosmos 2227 Rocket 2.8 03:46:04 10° NW 03:51:05 34° WSW 03:56:05 10° SSW
Cosmos 2026 Rocket 4.3 03:45:41 10° NNW 03:51:43 50° W 03:57:46 10° SSW
Cosmos 1697 Rocket 3.8 03:48:20 10° WSW 03:53:15 30° NW 03:58:11 10° N
Cosmos 1408 Rocket 4.2 03:52:40 10° SW 03:56:45 38° WNW 04:00:48 10° N
CZ-2C R/B 2.5 03:52:50 10° N 03:57:46 77° WNW 04:02:49 10° SSW
Atlas Centaur 2 4.1 03:52:39 10° SW 03:59:09 26° S 04:05:07 10° ESE
SL-14 R/B 3.6 03:55:39 10° N 03:59:38 72° E 04:03:33 10° SSE
USA-17 4.4 03:57:17 10° NW 04:00:26 60° SW 04:04:14 10° SSE
Cosmos 2297 Rocket 4.0 04:03:41 10° WNW 04:05:55 12° W 04:08:07 10° WSW
Cosmos 1634 Rocket 4.4 04:00:59 10° SSW 04:06:53 46° WNW 04:12:48 10° N
Envisat 3.7 04:02:11 10° N 04:06:54 39° WNW 04:11:34 10° SW
BREEZE-M DEB (TANK) 3.9 03:54:23 10° WNW 04:08:41 50° SW 04:12:25 10° SSE
